CW9928 Weather Reports


Display with metric or nautical units.
time (UTC)temp
F
wind
direction
speed
MPH
gust
MPH
rain 1hr
in
rain 24hr
in
rain mn
in
humidity
%
barometer
mb
20260901105551 72 225 0.0 0.0 0.00 0.23 0.00 91 1013.4
20260901105031 73 225 0.0 0.0 0.00 0.23 0.00 91 1013.5
20260901104520 73 225 0.0 0.0 0.00 0.23 0.00 91 1013.5
20260901104055 73 225 0.0 0.0 0.00 0.23 0.00 91 1013.5
20260901103534 73 225 0.0 0.0 0.00 0.23 0.00 90 1013.4
20260901103015 73 225 0.0 0.0 0.00 0.23 0.00 90 1013.4
20260901102559 73 225 0.0 0.0 0.00 0.23 0.00 90 1013.4
20260901102039 73 225 0.0 0.0 0.00 0.23 0.00 90 1013.3
20260901101519 73 225 0.0 0.0 0.00 0.23 0.00 89 1013.4
20260901101105 73 225 0.0 0.0 0.00 0.23 0.00 89 1013.3
20260901100545 73 225 0.0 0.0 0.00 0.23 0.00 89 1013.2
20260901100006 74 225 0.0 0.0 0.00 0.23 0.00 89 1013.3
20260901095548 74 225 0.0 0.0 0.00 0.23 0.00 89 1013.2
20260901095028 74 225 0.0 0.0 0.00 0.23 0.00 88 1013.2
20260901094508 74 225 0.0 0.0 0.00 0.23 0.00 88 1013.1
20260901094052 74 225 0.0 0.0 0.00 0.23 0.00 88 1013.1
20260901093532 74 225 0.0 0.0 0.00 0.23 0.00 88 1013.1
20260901093012 74 225 0.0 0.0 0.00 0.23 0.00 88 1013.0
20260901092559 74 225 0.0 0.0 0.00 0.23 0.00 88 1013.0
20260901092039 74 225 0.0 0.0 0.00 0.23 0.00 88 1013.0
20260901091516 74 225 0.0 0.0 0.00 0.23 0.00 88 1013.0
20260901091059 74 225 0.0 0.0 0.00 0.24 0.00 88 1012.9
20260901090539 74 225 0.0 4.0 0.00 0.24 0.00 88 1012.9
20260901090006 74 225 0.0 0.0 0.00 0.24 0.00 88 1012.9
20260901085546 74 225 0.0 0.0 0.00 0.24 0.00 88 1012.9
20260901085026 74 225 0.0 5.0 0.00 0.24 0.00 88 1012.9
20260901084507 74 225 0.0 7.0 0.00 0.24 0.00 87 1012.8
20260901084050 74 243 2.0 7.0 0.00 0.24 0.00 88 1012.7
20260901083531 74 227 0.0 5.0 0.00 0.24 0.00 88 1012.8
20260901083026 74 233 0.0 8.0 0.00 0.24 0.00 87 1012.8
20260901082554 74 233 0.0 8.0 0.00 0.24 0.00 87 1012.7
20260901082035 74 239 1.0 8.0 0.00 0.24 0.00 87 1012.6
20260901081517 74 260 0.0 7.0 0.00 0.24 0.00 87 1012.6
20260901081058 74 237 2.0 6.0 0.00 0.24 0.00 88 1012.6
20260901080538 74 233 0.0 6.0 0.00 0.24 0.00 88 1012.6
20260901080122 74 233 0.0 10.0 0.00 0.24 0.00 89 1012.7
20260901075543 74 260 2.0 10.0 0.00 0.24 0.00 89 1012.7
20260901075025 73 242 1.0 5.0 0.00 0.24 0.00 90 1012.8
20260901074513 73 235 0.0 9.0 0.00 0.24 0.00 91 1012.8
20260901074049 73 235 0.0 9.0 0.00 0.24 0.00 91 1012.7
20260901073529 73 329 0.0 4.0 0.00 0.24 0.00 92 1012.8
20260901073023 72 329 1.0 4.0 0.00 0.24 0.00 93 1012.9
20260901072552 72 241 0.0 4.0 0.00 0.24 0.00 93 1012.8
20260901072034 72 242 0.0 5.0 0.00 0.24 0.00 94 1013.0
20260901071512 72 242 0.0 5.0 0.00 0.24 0.00 94 1013.1
20260901071055 72 253 0.0 1.0 0.00 0.28 0.00 94 1013.1
20260901070536 72 253 0.0 4.0 0.00 0.28 0.00 94 1013.1
20260901070121 72 253 0.0 5.0 0.00 0.28 0.00 94 1013.2
20260901065542 72 253 0.0 5.0 0.00 0.28 0.00 95 1013.3
20260901065024 72 253 0.0 2.0 0.00 0.28 0.00 95 1013.2
20260901064502 71 253 0.0 2.0 0.00 0.28 0.00 94 1013.3
20260901064046 71 233 0.0 0.0 0.00 0.28 0.00 95 1013.4
20260901063527 71 233 0.0 0.0 0.00 0.28 0.00 95 1013.4
20260901063006 71 233 0.0 0.0 0.00 0.28 0.00 95 1013.5
20260901062550 71 233 0.0 0.0 0.00 0.28 0.00 95 1013.7
20260901062030 71 233 0.0 0.0 0.00 0.28 0.00 95 1013.8
20260901061510 71 233 0.0 0.0 0.00 0.28 0.00 95 1013.7
20260901061054 71 233 0.0 0.0 0.00 0.32 0.00 95 1013.8
20260901060534 71 233 0.0 4.0 0.00 0.32 0.00 95 1013.9
20260901060118 71 233 0.0 4.0 0.00 0.32 0.00 95 1014.0
20260901055541 71 233 0.0 2.0 0.00 0.32 0.00 95 1014.2
20260901055019 71 225 0.0 0.0 0.00 0.32 0.00 95 1014.3
20260901054614 71 225 0.0 0.0 0.00 0.32 0.00 95 1014.4
20260901054046 71 225 0.0 2.0 0.00 0.32 0.00 95 1014.3
20260901053521 71 225 0.0 2.0 0.00 0.32 0.00 95 1014.5
20260901053002 71 225 0.0 1.0 0.00 0.32 0.00 95 1014.5
20260901052545 71 225 0.0 1.0 0.00 0.32 0.00 95 1014.5
20260901052025 71 225 0.0 0.0 0.00 0.32 0.00 95 1014.4
20260901051509 71 225 0.0 0.0 0.00 0.32 0.00 95 1014.5
20260901051050 71 225 0.0 0.0 0.00 0.32 0.00 95 1014.4
20260901050530 71 225 0.0 0.0 0.00 0.32 0.00 95 1014.5
20260901050114 71 225 0.0 0.0 0.00 0.32 0.00 95 1014.5
20260901045535 71 225 0.0 0.0 0.00 0.32 0.00 95 1014.5
20260901045015 71 225 0.0 0.0 0.00 0.32 0.00 95 1014.6
20260901044600 71 225 0.0 0.0 0.00 0.32 0.00 95 1014.6
20260901044040 71 225 0.0 0.0 0.00 0.32 0.00 95 1014.5
20260901043520 71 225 0.0 0.0 0.00 0.32 0.00 95 1014.7
20260901043106 71 225 0.0 0.0 0.00 0.32 0.00 95 1014.8
20260901042543 71 225 0.0 0.0 0.00 0.32 0.00 95 1014.9
20260901042023 71 225 0.0 0.0 0.00 0.32 0.00 95 1015.2
20260901041504 71 225 0.0 0.0 0.00 0.32 0.00 95 1015.3
20260901041048 71 225 0.0 0.0 0.00 0.32 0.32 95 1015.2
20260901040529 71 225 0.0 0.0 0.00 0.32 0.32 95 1015.4
20260901040139 71 225 0.0 0.0 0.00 0.32 0.32 95 1015.3
20260901035534 71 225 0.0 0.0 0.00 0.32 0.32 95 1015.4
20260901035013 71 225 0.0 0.0 0.00 0.32 0.32 95 1015.4
20260901034558 71 225 0.0 0.0 0.00 0.32 0.32 95 1015.5
20260901034037 71 225 0.0 0.0 0.00 0.32 0.32 95 1015.6
20260901033517 71 225 0.0 0.0 0.00 0.32 0.32 95 1015.6
20260901033120 71 225 0.0 0.0 0.00 0.32 0.32 95 1015.6
20260901032542 71 225 0.0 0.0 0.00 0.32 0.32 95 1015.6
20260901032022 71 225 0.0 0.0 0.00 0.32 0.32 95 1015.7
20260901031505 71 225 0.0 0.0 0.00 0.32 0.32 95 1015.5
20260901031048 71 225 0.0 0.0 0.00 0.32 0.32 95 1015.6
20260901030525 71 225 0.0 0.0 0.00 0.32 0.32 95 1015.7
20260901030110 71 225 0.0 0.0 0.00 0.32 0.32 95 1015.8
20260901025534 71 225 0.0 0.0 0.00 0.32 0.32 95 1015.8
20260901025012 71 225 0.0 0.0 0.00 0.32 0.32 95 1015.7
20260901024559 71 225 0.0 0.0 0.00 0.32 0.32 95 1015.8
20260901024036 71 225 0.0 0.0 0.00 0.32 0.32 95 1015.8
20260901023517 71 225 0.0 0.0 0.00 0.32 0.32 95 1016.0
20260901023100 71 225 0.0 0.0 0.00 0.32 0.32 95 1016.1
20260901022539 71 225 0.0 0.0 0.00 0.32 0.32 95 1016.1
20260901022022 71 225 0.0 0.0 0.00 0.32 0.32 95 1015.9
20260901021605 72 225 0.0 0.0 0.00 0.32 0.32 95 1016.1
20260901021044 72 225 0.0 0.0 0.00 0.32 0.32 95 1016.1
20260901020525 72 225 0.0 0.0 0.00 0.32 0.32 95 1016.1
20260901020108 72 225 0.0 0.0 0.00 0.32 0.32 95 1016.2
20260901015529 72 225 0.0 0.0 0.00 0.32 0.32 95 1016.2
20260901015011 72 225 0.0 0.0 0.00 0.32 0.32 95 1016.2
20260901014554 72 225 0.0 0.0 0.00 0.32 0.32 95 1016.1
20260901014036 72 225 0.0 0.0 0.00 0.32 0.32 95 1016.2
20260901013519 72 225 0.0 0.0 0.00 0.32 0.32 95 1016.1
20260901013100 72 225 0.0 0.0 0.00 0.32 0.32 95 1016.2
20260901012537 72 225 0.0 0.0 0.00 0.32 0.32 95 1016.2
20260901012020 72 225 0.0 0.0 0.00 0.32 0.32 95 1016.2
20260901011603 72 225 0.0 0.0 0.00 0.32 0.32 95 1016.5
20260901011041 72 225 0.0 0.0 0.00 0.32 0.32 95 1016.5
20260901010521 72 225 0.0 0.0 0.00 0.32 0.32 94 1016.4
20260901010108 72 225 0.0 0.0 0.00 0.32 0.32 94 1016.6
20260901005528 72 225 0.0 0.0 0.00 0.32 0.32 94 1016.7
20260901005007 72 225 0.0 2.0 0.00 0.32 0.32 94 1016.4
20260901004551 72 225 0.0 2.0 0.00 0.32 0.32 94 1016.5
20260901004032 73 225 0.0 0.0 0.00 0.32 0.32 94 1016.2
20260901003511 72 225 0.0 0.0 0.00 0.32 0.32 94 1016.1
20260901003055 72 225 0.0 0.0 0.00 0.32 0.32 94 1016.0
20260901002535 73 225 0.0 0.0 0.00 0.32 0.32 94 1016.0
20260901002019 73 225 0.0 0.0 0.00 0.32 0.32 94 1016.0
20260901001606 73 225 0.0 0.0 0.00 0.32 0.32 94 1016.0
20260901001039 73 225 0.0 0.0 0.00 0.32 0.32 94 1016.0
20260901000525 73 225 0.0 0.0 0.00 0.32 0.32 94 1015.9
20260901000106 73 225 0.0 1.0 0.00 0.32 0.32 94 1016.0
20260831235525 73 225 0.0 0.0 0.00 0.32 0.32 94 1016.0
20260831235006 73 225 0.0 0.0 0.00 0.32 0.32 94 1016.0
20260831234550 73 225 0.0 0.0 0.00 0.32 0.32 94 1016.0
20260831234034 73 225 0.0 0.0 0.00 0.32 0.32 94 1015.9
20260831233509 74 225 0.0 0.0 0.00 0.32 0.32 94 1015.9
20260831233053 74 225 0.0 0.0 0.00 0.32 0.32 94 1016.0
20260831232533 74 225 0.0 0.0 0.00 0.32 0.32 94 1015.9
20260831232014 74 225 0.0 0.0 0.00 0.32 0.32 94 1016.0
20260831231602 74 225 0.0 0.0 0.00 0.32 0.32 94 1016.1
20260831231037 74 225 0.0 0.0 0.00 0.32 0.32 94 1015.9
20260831230517 74 225 0.0 0.0 0.00 0.32 0.32 94 1015.9
20260831230139 74 225 0.0 0.0 0.00 0.32 0.32 94 1016.0
20260831225523 74 225 0.0 0.0 0.00 0.32 0.32 94 1016.0
20260831225003 74 225 0.0 0.0 0.00 0.32 0.32 93 1015.9
20260831224547 74 225 0.0 0.0 0.00 0.32 0.32 94 1015.8
20260831224027 74 225 0.0 0.0 0.00 0.32 0.32 94 1016.0
20260831223507 74 225 0.0 4.0 0.00 0.32 0.32 94 1016.1
20260831223051 74 225 0.0 4.0 0.00 0.32 0.32 94 1016.1
20260831222530 74 225 0.0 2.0 0.00 0.32 0.32 94 1016.2
20260831222012 74 225 0.0 5.0 0.00 0.32 0.32 94 1016.2
20260831221623 74 225 0.0 5.0 0.00 0.32 0.32 94 1016.2
20260831221035 74 224 0.0 5.0 0.00 0.32 0.32 95 1016.3
20260831220515 74 225 0.0 0.0 0.00 0.32 0.32 95 1016.4
20260831220059 74 225 0.0 0.0 0.00 0.32 0.32 95 1016.3
20260831215524 74 225 0.0 0.0 0.00 0.32 0.32 95 1016.3
20260831215000 74 225 0.0 0.0 0.00 0.32 0.32 95 1016.4
20260831214548 74 225 0.0 0.0 0.00 0.32 0.32 95 1016.5
20260831214028 74 225 0.0 0.0 0.00 0.32 0.32 95 1016.6
20260831213505 74 225 0.0 0.0 0.00 0.32 0.32 95 1016.6
20260831213054 74 225 0.0 0.0 0.00 0.32 0.32 95 1016.7
20260831212529 74 225 0.0 0.0 0.00 0.32 0.32 95 1016.6
20260831212009 74 225 0.0 2.0 0.00 0.32 0.32 95 1016.6
20260831211603 74 225 0.0 2.0 0.00 0.32 0.32 95 1016.6
20260831211034 74 225 0.0 0.0 0.00 0.32 0.32 95 1016.6
20260831210515 74 225 0.0 0.0 0.00 0.32 0.32 95 1016.5
20260831210057 74 225 0.0 0.0 0.00 0.32 0.32 95 1016.3
20260831205519 73 225 0.0 0.0 0.00 0.32 0.32 95 1016.4
20260831205103 73 225 0.0 0.0 0.00 0.32 0.32 95 1016.4
20260831204543 73 225 0.0 0.0 0.00 0.32 0.32 95 1016.3
20260831204023 73 225 0.0 0.0 0.00 0.32 0.32 95 1015.9
20260831203504 73 225 0.0 0.0 0.00 0.32 0.32 95 1016.1
20260831203048 73 225 0.0 0.0 0.00 0.32 0.32 95 1016.3
20260831202531 73 225 0.0 0.0 0.01 0.32 0.32 95 1016.2
20260831202007 73 225 0.0 0.0 0.01 0.32 0.32 95 1016.3
20260831201555 73 225 0.0 0.0 0.01 0.32 0.32 95 1016.3
20260831201031 73 225 0.0 0.0 0.01 0.34 0.32 95 1016.4
20260831200512 73 225 0.0 0.0 0.01 0.34 0.32 95 1016.3
20260831200055 73 225 0.0 0.0 0.01 0.34 0.32 95 1016.5
20260831195517 73 225 0.0 0.0 0.01 0.34 0.32 95 1016.5
20260831195101 73 225 0.0 0.0 0.02 0.34 0.32 95 1016.5
20260831194615 72 225 0.0 0.0 0.03 0.34 0.32 95 1016.5
20260831194024 72 225 0.0 2.0 0.03 0.34 0.32 95 1016.6
20260831193500 72 225 0.0 2.0 0.03 0.34 0.32 95 1016.6
20260831193045 72 225 0.0 4.0 0.04 0.34 0.32 95 1016.6
20260831192524 72 225 0.0 4.0 0.04 0.33 0.31 95 1016.7
20260831192008 72 227 0.0 0.0 0.06 0.33 0.31 95 1016.8
20260831191549 72 227 0.0 0.0 0.07 0.33 0.31 95 1016.9
20260831191029 72 227 0.0 0.0 0.07 0.33 0.31 95 1016.9
20260831190510 72 227 0.0 1.0 0.07 0.33 0.31 95 1016.9
20260831190104 72 227 0.0 1.0 0.07 0.33 0.31 95 1017.0
20260831185512 72 227 0.0 0.0 0.06 0.32 0.30 95 1017.0
20260831185056 72 227 0.0 0.0 0.06 0.32 0.30 95 1017.2
20260831184544 72 227 0.0 0.0 0.05 0.31 0.28 95 1017.2
20260831184016 72 227 0.0 0.0 0.05 0.31 0.28 95 1017.2
20260831183600 72 227 0.0 0.0 0.05 0.31 0.28 95 1017.1
20260831183042 72 227 0.0 0.0 0.04 0.30 0.28 95 1017.2
20260831182521 72 227 0.0 0.0 0.03 0.28 0.27 95 1017.2
20260831182106 72 227 0.0 0.0 0.01 0.27 0.25 95 1017.2
20260831181544 72 227 0.0 0.0 0.00 0.26 0.24 95 1017.1
20260831181023 72 227 0.0 0.0 0.00 0.26 0.24 95 1017.1
20260831180504 72 227 0.0 2.0 0.00 0.26 0.24 95 1017.0
20260831180048 72 227 0.0 2.0 0.01 0.26 0.24 95 1017.0
20260831175511 72 227 0.0 0.0 0.01 0.26 0.24 95 1017.1
20260831175054 72 250 0.0 0.0 0.01 0.26 0.24 95 1017.4
20260831174547 72 250 0.0 0.0 0.01 0.26 0.24 95 1017.6
20260831174017 72 250 0.0 0.0 0.01 0.26 0.24 95 1017.4
20260831173558 72 250 0.0 0.0 0.01 0.26 0.24 95 1017.4
20260831173043 71 250 0.0 0.0 0.01 0.26 0.24 95 1017.4
20260831172517 71 250 0.0 0.0 0.01 0.26 0.24 95 1017.4
20260831172104 71 250 0.0 0.0 0.01 0.26 0.24 95 1017.3
20260831171544 71 250 0.0 0.0 0.01 0.26 0.24 95 1017.4
20260831171022 71 250 0.0 0.0 0.01 0.26 0.24 95 1017.4
20260831170504 71 250 0.0 0.0 0.01 0.26 0.24 95 1017.6
20260831170125 71 250 0.0 0.0 0.00 0.25 0.23 95 1017.7
20260831165507 71 250 0.0 0.0 0.00 0.25 0.23 95 1017.7
20260831165051 71 250 0.0 0.0 0.00 0.25 0.23 95 1017.7
20260831164534 71 250 0.0 4.0 0.00 0.25 0.23 95 1017.6
20260831164013 71 250 0.0 4.0 0.00 0.25 0.23 95 1017.7
20260831163556 71 283 0.0 4.0 0.00 0.25 0.23 95 1017.7
20260831163040 71 283 0.0 4.0 0.00 0.25 0.23 95 1017.7
20260831162515 70 284 0.0 2.0 0.00 0.25 0.23 95 1017.8
20260831162102 70 285 0.0 4.0 0.00 0.25 0.23 95 1017.7
20260831161540 70 286 0.0 4.0 0.00 0.25 0.23 95 1017.8
20260831161018 69 292 0.0 2.0 0.00 0.26 0.23 95 1017.8
20260831160603 69 293 0.0 1.0 0.00 0.26 0.23 95 1017.8
20260831160043 69 293 0.0 1.0 0.00 0.26 0.23 95 1017.8
20260831155505 69 293 0.0 0.0 0.00 0.26 0.23 95 1017.9
20260831155049 69 293 0.0 0.0 0.00 0.26 0.23 95 1017.9
20260831154526 68 293 0.0 0.0 0.00 0.26 0.23 95 1017.9
20260831154006 68 293 0.0 0.0 0.01 0.26 0.23 95 1018.1
20260831153549 68 293 0.0 0.0 0.01 0.26 0.23 95 1018.1
20260831153029 68 293 0.0 4.0 0.01 0.26 0.23 95 1018.3
20260831152510 68 293 0.0 4.0 0.01 0.26 0.23 95 1018.3
20260831152054 68 293 0.0 0.0 0.01 0.26 0.23 95 1018.3
20260831151534 68 293 0.0 0.0 0.01 0.26 0.23 95 1018.3
20260831151013 68 293 0.0 0.0 0.01 0.27 0.23 95 1018.2
20260831150558 68 293 0.0 0.0 0.01 0.27 0.23 95 1018.1
20260831150037 68 293 0.0 0.0 0.01 0.27 0.23 95 1018.2
20260831145604 67 293 0.0 0.0 0.01 0.27 0.23 95 1018.3
20260831145043 67 293 0.0 2.0 0.01 0.27 0.23 95 1018.1
20260831144528 67 293 0.0 2.0 0.01 0.27 0.23 95 1018.1
20260831144004 67 293 0.0 0.0 0.00 0.26 0.22 95 1017.8
20260831143549 67 293 0.0 0.0 0.00 0.26 0.22 95 1017.9
20260831143028 67 293 0.0 0.0 0.00 0.26 0.22 95 1017.8
20260831142509 67 293 0.0 0.0 0.01 0.26 0.22 95 1017.7
20260831142052 67 293 0.0 0.0 0.02 0.26 0.22 95 1017.8
20260831141532 67 293 0.0 0.0 0.02 0.26 0.22 95 1017.8
20260831141011 67 293 0.0 0.0 0.02 0.26 0.22 95 1017.8
20260831140555 67 293 0.0 0.0 0.03 0.26 0.22 95 1017.8
20260831140035 67 293 0.0 0.0 0.04 0.26 0.22 95 1018.1
20260831135602 67 293 0.0 0.0 0.07 0.26 0.22 95 1018.2
20260831135042 67 293 0.0 0.0 0.08 0.26 0.22 95 1018.2
20260831134522 67 293 0.0 2.0 0.09 0.26 0.22 95 1018.2
20260831134003 67 293 0.0 2.0 0.09 0.26 0.22 95 1018.2
20260831133545 66 293 0.0 0.0 0.09 0.26 0.22 95 1018.2
20260831133028 66 293 0.0 0.0 0.10 0.26 0.22 95 1018.3
20260831132505 66 293 0.0 0.0 0.09 0.25 0.21 95 1018.3
20260831132053 66 293 0.0 0.0 0.09 0.24 0.20 95 1018.4
20260831131530 66 293 0.0 0.0 0.10 0.24 0.20 95 1018.5
20260831131014 66 293 0.0 0.0 0.09 0.23 0.19 95 1018.4
20260831130557 66 293 0.0 0.0 0.09 0.23 0.19 95 1018.4
20260831130033 66 293 0.0 4.0 0.08 0.22 0.18 95 1018.3
20260831125559 66 293 0.0 4.0 0.05 0.19 0.15 95 1018.3
20260831125041 66 243 0.0 0.0 0.04 0.18 0.14 95 1018.4
20260831124520 66 243 0.0 0.0 0.03 0.17 0.13 95 1018.4
20260831124105 66 243 0.0 2.0 0.03 0.17 0.13 95 1018.3
20260831123543 66 243 0.0 2.0 0.02 0.16 0.12 95 1018.4
20260831123024 66 243 0.0 1.0 0.02 0.16 0.12 95 1018.4
20260831122504 66 243 0.0 1.0 0.02 0.16 0.12 95 1018.4
20260831122047 66 243 0.0 0.0 0.01 0.15 0.11 95 1018.3
20260831121528 66 243 0.0 2.0 0.00 0.14 0.10 95 1018.5
20260831121008 66 243 0.0 2.0 0.00 0.14 0.10 95 1018.5
20260831120552 66 243 0.0 0.0 0.00 0.14 0.10 95 1018.4
20260831120021 66 243 0.0 0.0 0.00 0.14 0.10 95 1018.5
20260831115555 66 243 0.0 0.0 0.00 0.14 0.10 95 1018.6
20260831115035 66 243 0.0 0.0 0.00 0.14 0.10 95 1018.6
20260831114515 66 243 0.0 0.0 0.00 0.14 0.10 95 1018.5
20260831114059 66 243 0.0 0.0 0.00 0.14 0.10 95 1018.2
20260831113539 66 243 0.0 0.0 0.00 0.14 0.10 95 1018.2
20260831113020 66 243 0.0 0.0 0.00 0.14 0.10 95 1018.1
20260831112606 66 243 0.0 0.0 0.00 0.14 0.10 95 1018.2
20260831112043 66 243 0.0 0.0 0.00 0.14 0.10 95 1018.0
20260831111529 66 243 0.0 0.0 0.01 0.14 0.10 95 1018.1
20260831111003 67 243 0.0 0.0 0.01 0.14 0.10 95 1018.2
20260831110549 67 243 0.0 0.0 0.01 0.14 0.10 95 1018.3
20260831110027 67 242 0.0 0.0 0.01 0.14 0.10 95 1018.3